Time+03,TemperatureF,Dew PointF,Humidity,Sea Level PressureIn,VisibilityMPH,Wind Direction,Wind SpeedMPH,Gust SpeedMPH,PrecipitationIn,Events,Conditions,WindDirDegrees,DateUTC
12:00 AM,96.8,42.8,16,29.42,-9999.0,NW,6.9,-,N/A,,Clear,320,2013-06-18 21:00:00
1:00 AM,96.8,41.0,15,29.42,-9999.0,NW,8.1,-,N/A,,Clear,310,2013-06-18 22:00:00
2:00 AM,95.0,41.0,15,29.42,-9999.0,WNW,6.9,-,N/A,,Clear,300,2013-06-18 23:00:00
2:30 AM,95.0,41.0,15,29.42,-9999.0,WNW,6.9,-,N/A,,Clear,300,2013-06-18 23:30:00
3:00 AM,95,42,8,29.43,9,WNW,5.8,,,,,300,2013-06-19 00:00:00
3:00 AM,95.0,41.0,15,29.42,-9999.0,WNW,5.8,-,N/A,,Clear,300,2013-06-19 00:00:00
3:30 AM,93.2,46.4,20,29.42,-9999.0,West,4.6,-,N/A,,Clear,280,2013-06-19 00:30:00
4:00 AM,93.2,46.4,20,29.42,-9999.0,West,4.6,-,N/A,,Clear,260,2013-06-19 01:00:00
5:00 AM,91.4,50.0,24,29.44,-9999.0,West,4.6,-,N/A,,Clear,260,2013-06-19 02:00:00
5:30 AM,91.4,51.8,26,29.44,-9999.0,West,3.5,-,N/A,,Clear,260,2013-06-19 02:30:00
6:00 AM,93.2,48.2,21,29.44,-9999.0,West,4.6,-,N/A,,Clear,260,2013-06-19 03:00:00
6:30 AM,95.0,46.4,19,29.47,-9999.0,WNW,5.8,-,N/A,,Clear,300,2013-06-19 03:30:00
7:00 AM,96.8,46.4,18,29.47,-9999.0,WNW,5.8,-,N/A,,Clear,300,2013-06-19 04:00:00
7:30 AM,98.6,46.4,17,29.50,-9999.0,WNW,8.1,-,N/A,,Clear,300,2013-06-19 04:30:00
8:00 AM,98.6,48.2,18,29.50,-9999.0,NW,10.4,-,N/A,,Clear,310,2013-06-19 05:00:00
9:00 AM,101,52,11,29.53,9,NNW,10.4,,,,,340,2013-06-19 06:00:00
9:00 AM,100.4,51.8,20,29.50,-9999.0,NNW,10.4,-,N/A,,Clear,340,2013-06-19 06:00:00
9:30 AM,102.2,51.8,18,29.50,-9999.0,North,12.7,-,N/A,,Clear,360,2013-06-19 06:30:00
10:00 AM,102.2,53.6,20,29.50,-9999.0,North,11.5,-,N/A,,Clear,350,2013-06-19 07:00:00
10:30 AM,104.0,51.8,17,29.50,-9999.0,North,12.7,-,N/A,,Clear,360,2013-06-19 07:30:00
11:00 AM,105.8,48.2,14,29.50,-9999.0,North,16.1,-,N/A,,Clear,360,2013-06-19 08:00:00
11:30 AM,105.8,46.4,14,29.50,-9999.0,North,17.3,-,N/A,,Clear,10,2013-06-19 08:30:00
12:00 PM,105.8,48.2,14,29.50,-9999.0,North,16.1,-,N/A,,Clear,10,2013-06-19 09:00:00
12:30 PM,104.0,48.2,15,29.50,-9999.0,North,16.1,-,N/A,,Clear,10,2013-06-19 09:30:00
1:00 PM,105.8,46.4,14,29.50,-9999.0,North,17.3,-,N/A,,Clear,10,2013-06-19 10:00:00
1:30 PM,105.8,46.4,14,29.47,-9999.0,NNE,15.0,-,N/A,,Clear,20,2013-06-19 10:30:00
2:00 PM,105.8,41.0,11,29.47,-9999.0,North,13.8,-,N/A,,Clear,10,2013-06-19 11:00:00
2:30 PM,105.8,41.0,11,29.47,-9999.0,North,15.0,-,N/A,,Clear,10,2013-06-19 11:30:00
3:00 PM,106,43,6,29.49,9,North,16.1,,,,,10,2013-06-19 12:00:00
3:00 PM,105.8,42.8,12,29.47,-9999.0,North,16.1,-,N/A,,Clear,10,2013-06-19 12:00:00
3:30 PM,104.0,48.2,15,29.47,-9999.0,North,16.1,-,N/A,,Clear,10,2013-06-19 12:30:00
4:00 PM,102.2,53.6,20,29.47,-9999.0,North,13.8,-,N/A,,Clear,10,2013-06-19 13:00:00
4:30 PM,102.2,57.2,22,29.47,-9999.0,North,12.7,-,N/A,,Clear,360,2013-06-19 13:30:00
5:00 PM,102.2,55.4,21,29.50,-9999.0,North,11.5,-,N/A,,Clear,360,2013-06-19 14:00:00
6:00 PM,102.2,44.6,14,29.50,-9999.0,North,9.2,-,N/A,,Clear,360,2013-06-19 15:00:00
6:30 PM,102.2,42.8,13,29.50,-9999.0,North,9.2,-,N/A,,Clear,350,2013-06-19 15:30:00
7:00 PM,100.4,41.0,13,29.50,-9999.0,NNW,9.2,-,N/A,,Clear,340,2013-06-19 16:00:00
8:00 PM,100.4,39.2,12,29.53,-9999.0,North,9.2,-,N/A,,Clear,350,2013-06-19 17:00:00
8:30 PM,98.6,42.8,15,29.53,-9999.0,NNW,9.2,-,N/A,,Clear,340,2013-06-19 17:30:00
9:00 PM,98,42,8,29.55,6,North,6.9,,,,,350,2013-06-19 18:00:00
9:00 PM,98.6,42.8,15,29.53,-9999.0,North,6.9,-,N/A,,Clear,350,2013-06-19 18:00:00
9:30 PM,98.6,42.8,15,29.53,-9999.0,NNW,9.2,-,N/A,,Clear,340,2013-06-19 18:30:00
10:00 PM,96.8,44.6,17,29.53,-9999.0,NNW,6.9,-,N/A,,Clear,330,2013-06-19 19:00:00
10:30 PM,96.8,42.8,16,29.53,-9999.0,NNW,6.9,-,N/A,,Clear,330,2013-06-19 19:30:00
11:00 PM,96.8,42.8,16,29.53,-9999.0,NNW,8.1,-,N/A,,Clear,340,2013-06-19 20:00:00
11:30 PM,96.8,41.0,15,29.50,-9999.0,NNW,10.4,-,N/A,,Clear,340,2013-06-19 20:30:00